| time (UTC) | temp C | wind direction | speed KPH | gust KPH | rain 1hr cm | rain 24hr cm | rain mn cm | humidity % | barometer mb |
| 20260906212904 | 28 | 163 | 12.9 | 32.2 | 0.00 | 0.00 | 0.00 | 40 | 814.5 |
| 20260906212404 | 28 | 132 | 22.5 | 32.2 | 0.00 | 0.00 | 0.00 | 38 | 814.6 |
| 20260906211404 | 28 | 121 | 20.9 | 27.4 | 0.00 | 0.00 | 0.00 | 39 | 814.7 |
| 20260906210904 | 28 | 147 | 20.9 | 27.4 | 0.00 | 0.00 | 0.00 | 37 | 814.6 |
| 20260906205904 | 28 | 143 | 16.1 | 32.2 | 0.00 | 0.00 | 0.00 | 37 | 814.9 |
| 20260906205404 | 28 | 172 | 16.1 | 32.2 | 0.00 | 0.00 | 0.00 | 39 | 814.7 |
| 20260906204903 | 28 | 148 | 17.7 | 32.2 | 0.00 | 0.00 | 0.00 | 37 | 814.8 |
| 20260906204404 | 28 | 136 | 16.1 | 27.4 | 0.00 | 0.00 | 0.00 | 36 | 814.9 |
| 20260906203904 | 28 | 170 | 14.5 | 25.7 | 0.00 | 0.00 | 0.00 | 36 | 815.0 |
| 20260906203403 | 28 | 124 | 12.9 | 25.7 | 0.00 | 0.00 | 0.00 | 39 | 815.1 |
| 20260906202904 | 28 | 131 | 17.7 | 25.7 | 0.00 | 0.00 | 0.00 | 38 | 815.1 |
| 20260906202403 | 27 | 156 | 8.0 | 25.7 | 0.00 | 0.00 | 0.00 | 37 | 815.1 |
| 20260906200404 | 27 | 137 | 22.5 | 27.4 | 0.00 | 0.00 | 0.00 | 39 | 815.3 |
| 20260906195403 | 27 | 163 | 19.3 | 24.1 | 0.00 | 0.00 | 0.00 | 39 | 815.4 |
| 20260906194904 | 27 | 147 | 12.9 | 27.4 | 0.00 | 0.00 | 0.00 | 40 | 815.4 |
| 20260906194404 | 27 | 136 | 16.1 | 27.4 | 0.00 | 0.00 | 0.00 | 40 | 815.3 |
| 20260906193904 | 27 | 120 | 22.5 | 27.4 | 0.00 | 0.00 | 0.00 | 40 | 815.3 |
| 20260906193404 | 27 | 131 | 14.5 | 24.1 | 0.00 | 0.00 | 0.00 | 41 | 815.4 |
| 20260906192903 | 27 | 165 | 19.3 | 25.7 | 0.00 | 0.00 | 0.00 | 40 | 815.6 |
| 20260906191904 | 26 | 122 | 19.3 | 27.4 | 0.00 | 0.00 | 0.00 | 42 | 816.0 |
| 20260906191403 | 26 | 153 | 19.3 | 27.4 | 0.00 | 0.00 | 0.00 | 44 | 815.8 |
| 20260906190904 | 27 | 148 | 16.1 | 22.5 | 0.00 | 0.00 | 0.00 | 42 | 816.1 |
| 20260906190403 | 26 | 146 | 16.1 | 22.5 | 0.00 | 0.00 | 0.00 | 43 | 816.0 |
| 20260906185404 | 26 | 149 | 11.3 | 25.7 | 0.00 | 0.00 | 0.00 | 45 | 816.1 |
| 20260906184904 | 26 | 120 | 12.9 | 25.7 | 0.00 | 0.00 | 0.00 | 45 | 816.1 |
| 20260906183903 | 26 | 123 | 12.9 | 24.1 | 0.00 | 0.00 | 0.00 | 44 | 816.5 |
| 20260906183403 | 26 | 165 | 14.5 | 22.5 | 0.00 | 0.00 | 0.00 | 44 | 816.4 |
| 20260906182904 | 26 | 149 | 6.4 | 22.5 | 0.00 | 0.00 | 0.00 | 43 | 816.5 |
| 20260906182403 | 26 | 130 | 14.5 | 22.5 | 0.00 | 0.00 | 0.00 | 43 | 816.5 |
| 20260906181903 | 26 | 184 | 6.4 | 22.5 | 0.00 | 0.00 | 0.00 | 43 | 816.6 |
| 20260906181404 | 26 | 124 | 11.3 | 20.9 | 0.00 | 0.00 | 0.00 | 44 | 816.5 |
| 20260906180904 | 26 | 137 | 11.3 | 20.9 | 0.00 | 0.00 | 0.00 | 44 | 816.6 |
| 20260906180403 | 26 | 159 | 14.5 | 20.9 | 0.00 | 0.00 | 0.00 | 45 | 816.8 |
| 20260906175904 | 26 | 192 | 9.7 | 22.5 | 0.00 | 0.00 | 0.00 | 45 | 816.6 |
| 20260906175404 | 26 | 107 | 11.3 | 22.5 | 0.00 | 0.00 | 0.00 | 46 | 816.8 |
| 20260906174903 | 26 | 151 | 16.1 | 22.5 | 0.00 | 0.00 | 0.00 | 46 | 816.9 |
| 20260906174404 | 25 | 114 | 9.7 | 19.3 | 0.00 | 0.00 | 0.00 | 44 | 816.9 |
| 20260906173903 | 26 | 123 | 9.7 | 19.3 | 0.00 | 0.00 | 0.00 | 44 | 817.0 |
| 20260906173404 | 26 | 121 | 6.4 | 14.5 | 0.00 | 0.00 | 0.00 | 44 | 817.0 |
| 20260906172904 | 25 | 134 | 4.8 | 9.7 | 0.00 | 0.00 | 0.00 | 45 | 817.0 |
| 20260906172403 | 25 | 313 | 1.6 | 12.9 | 0.00 | 0.00 | 0.00 | 46 | 817.2 |
| 20260906171404 | 24 | 241 | 9.7 | 16.1 | 0.00 | 0.00 | 0.00 | 48 | 817.3 |
| 20260906170904 | 23 | 200 | 6.4 | 16.1 | 0.00 | 0.00 | 0.00 | 51 | 817.4 |
| 20260906170404 | 23 | 199 | 9.7 | 16.1 | 0.00 | 0.00 | 0.00 | 50 | 817.5 |
| 20260906165904 | 23 | 58 | 3.2 | 16.1 | 0.00 | 0.00 | 0.00 | 52 | 817.3 |
| 20260906165404 | 22 | 184 | 4.8 | 19.3 | 0.00 | 0.00 | 0.00 | 54 | 817.5 |
| 20260906164904 | 22 | 181 | 12.9 | 19.3 | 0.00 | 0.00 | 0.00 | 56 | 817.4 |
| 20260906164404 | 22 | 205 | 11.3 | 19.3 | 0.00 | 0.00 | 0.00 | 58 | 817.5 |
| 20260906163903 | 21 | 193 | 12.9 | 20.9 | 0.00 | 0.00 | 0.00 | 61 | 817.4 |
| 20260906163403 | 21 | 208 | 11.3 | 20.9 | 0.00 | 0.00 | 0.00 | 63 | 817.4 |
| 20260906162903 | 21 | 203 | 14.5 | 22.5 | 0.00 | 0.00 | 0.00 | 63 | 817.5 |
| 20260906162403 | 21 | 206 | 14.5 | 22.5 | 0.00 | 0.00 | 0.00 | 62 | 817.6 |
| 20260906161903 | 21 | 196 | 16.1 | 22.5 | 0.00 | 0.00 | 0.00 | 63 | 817.6 |
| 20260906161403 | 21 | 187 | 17.7 | 24.1 | 0.00 | 0.00 | 0.00 | 65 | 817.5 |
| 20260906160903 | 21 | 179 | 14.5 | 24.1 | 0.00 | 0.00 | 0.00 | 65 | 817.6 |
| 20260906160403 | 21 | 221 | 11.3 | 24.1 | 0.00 | 0.00 | 0.00 | 65 | 817.6 |
| 20260906154903 | 20 | 164 | 14.5 | 24.1 | 0.00 | 0.00 | 0.00 | 67 | 817.6 |
| 20260906154404 | 20 | 183 | 11.3 | 24.1 | 0.00 | 0.00 | 0.00 | 67 | 817.7 |
| 20260906153904 | 20 | 197 | 14.5 | 29.0 | 0.00 | 0.00 | 0.00 | 68 | 831.0 |
| 20260906153404 | 20 | 178 | 17.7 | 29.0 | 0.00 | 0.00 | 0.00 | 68 | 1024.1 |
| 20260906152904 | 20 | 189 | 19.3 | 29.0 | 0.00 | 0.00 | 0.00 | 68 | 1024.0 |
| 20260906151904 | 20 | 166 | 19.3 | 25.7 | 0.00 | 0.00 | 0.00 | 68 | 1023.9 |
| 20260906150903 | 19 | 180 | 20.9 | 25.7 | 0.00 | 0.00 | 0.00 | 70 | 1024.1 |
| 20260906150403 | 19 | 189 | 20.9 | 27.4 | 0.00 | 0.00 | 0.00 | 70 | 1024.0 |
| 20260906145903 | 18 | 198 | 19.3 | 27.4 | 0.00 | 0.00 | 0.00 | 71 | 1023.7 |
| 20260906145403 | 18 | 198 | 19.3 | 25.7 | 0.00 | 0.00 | 0.00 | 72 | 1023.5 |
| 20260906144904 | 18 | 213 | 19.3 | 25.7 | 0.00 | 0.00 | 0.00 | 72 | 1023.6 |
| 20260906144403 | 18 | 216 | 17.7 | 24.1 | 0.00 | 0.00 | 0.00 | 72 | 1023.2 |
| 20260906143904 | 18 | 204 | 19.3 | 24.1 | 0.00 | 0.00 | 0.00 | 72 | 1023.4 |
| 20260906143404 | 18 | 210 | 19.3 | 24.1 | 0.00 | 0.00 | 0.00 | 72 | 1023.2 |
| 20260906142904 | 18 | 205 | 16.1 | 24.1 | 0.00 | 0.00 | 0.00 | 72 | 1023.1 |
| 20260906142404 | 18 | 220 | 14.5 | 24.1 | 0.00 | 0.00 | 0.00 | 74 | 1023.5 |
| 20260906141904 | 18 | 212 | 14.5 | 25.7 | 0.00 | 0.00 | 0.00 | 74 | 1023.6 |
| 20260906141403 | 18 | 207 | 16.1 | 25.7 | 0.00 | 0.00 | 0.00 | 74 | 1023.5 |
| 20260906140903 | 18 | 204 | 16.1 | 25.7 | 0.00 | 0.00 | 0.00 | 75 | 1023.5 |
| 20260906140403 | 17 | 204 | 19.3 | 24.1 | 0.00 | 0.00 | 0.00 | 75 | 1023.2 |
| 20260906135403 | 17 | 219 | 17.7 | 20.9 | 0.00 | 0.00 | 0.00 | 75 | 1023.2 |
| 20260906134903 | 17 | 228 | 14.5 | 20.9 | 0.00 | 0.00 | 0.00 | 77 | 1023.4 |
| 20260906134404 | 17 | 224 | 16.1 | 20.9 | 0.00 | 0.00 | 0.00 | 78 | 1023.1 |
| 20260906133904 | 16 | 212 | 14.5 | 19.3 | 0.00 | 0.00 | 0.00 | 78 | 1023.3 |
| 20260906132904 | 16 | 214 | 14.5 | 20.9 | 0.00 | 0.00 | 0.00 | 79 | 1023.2 |
| 20260906132404 | 16 | 210 | 11.3 | 20.9 | 0.00 | 0.00 | 0.00 | 80 | 1023.1 |
| 20260906131904 | 16 | 227 | 14.5 | 20.9 | 0.00 | 0.00 | 0.00 | 80 | 1023.1 |
| 20260906130903 | 15 | 219 | 14.5 | 24.1 | 0.00 | 0.00 | 0.00 | 82 | 1022.9 |
| 20260906130403 | 15 | 217 | 17.7 | 24.1 | 0.00 | 0.00 | 0.00 | 82 | 1022.9 |
| 20260906125903 | 15 | 209 | 19.3 | 24.1 | 0.00 | 0.00 | 0.00 | 83 | 1022.7 |
| 20260906125403 | 15 | 219 | 16.1 | 24.1 | 0.00 | 0.00 | 0.00 | 82 | 1022.4 |
| 20260906124404 | 15 | 225 | 17.7 | 22.5 | 0.00 | 0.00 | 0.00 | 85 | 1022.6 |
| 20260906123904 | 15 | 236 | 16.1 | 20.9 | 0.00 | 0.00 | 0.00 | 84 | 1022.5 |
| 20260906122904 | 15 | 226 | 14.5 | 22.5 | 0.00 | 0.00 | 0.00 | 83 | 1022.3 |
| 20260906122404 | 15 | 219 | 16.1 | 20.9 | 0.00 | 0.00 | 0.00 | 82 | 1022.0 |
| 20260906121904 | 15 | 219 | 19.3 | 20.9 | 0.00 | 0.00 | 0.00 | 82 | 1022.0 |
| 20260906121404 | 15 | 226 | 12.9 | 20.9 | 0.00 | 0.00 | 0.00 | 82 | 1022.0 |
| 20260906120904 | 15 | 229 | 16.1 | 20.9 | 0.00 | 0.00 | 0.00 | 82 | 1021.9 |
| 20260906120404 | 15 | 235 | 11.3 | 20.9 | 0.00 | 0.00 | 0.00 | 82 | 1021.8 |
| 20260906115904 | 15 | 231 | 14.5 | 20.9 | 0.00 | 0.00 | 0.00 | 83 | 1021.9 |
| 20260906115404 | 15 | 236 | 14.5 | 20.9 | 0.00 | 0.00 | 0.00 | 83 | 1021.6 |
| 20260906114404 | 16 | 243 | 16.1 | 22.5 | 0.00 | 0.00 | 0.00 | 82 | 1021.6 |
| 20260906113904 | 16 | 235 | 14.5 | 22.5 | 0.00 | 0.00 | 0.00 | 81 | 1021.4 |
| 20260906112404 | 16 | 218 | 19.3 | 24.1 | 0.00 | 0.00 | 0.00 | 80 | 1021.3 |
| 20260906111904 | 16 | 213 | 19.3 | 24.1 | 0.00 | 0.00 | 0.00 | 80 | 1021.2 |
| 20260906111404 | 16 | 220 | 17.7 | 22.5 | 0.00 | 0.00 | 0.00 | 80 | 1021.1 |
| 20260906110903 | 16 | 213 | 14.5 | 22.5 | 0.00 | 0.00 | 0.00 | 80 | 1021.2 |
| 20260906105404 | 17 | 206 | 16.1 | 25.7 | 0.00 | 0.00 | 0.00 | 79 | 1021.7 |
| 20260906104403 | 17 | 202 | 19.3 | 24.1 | 0.00 | 0.00 | 0.00 | 79 | 1021.6 |
| 20260906103904 | 17 | 211 | 16.1 | 20.9 | 0.00 | 0.00 | 0.00 | 80 | 1021.5 |
| 20260906103403 | 17 | 221 | 14.5 | 19.3 | 0.00 | 0.00 | 0.00 | 80 | 1021.4 |
| 20260906102403 | 17 | 220 | 9.7 | 20.9 | 0.00 | 0.00 | 0.00 | 80 | 1021.3 |
| 20260906101903 | 17 | 208 | 14.5 | 20.9 | 0.00 | 0.00 | 0.00 | 80 | 1021.2 |
| 20260906101403 | 17 | 220 | 14.5 | 20.9 | 0.00 | 0.00 | 0.00 | 80 | 1021.4 |
| 20260906100903 | 17 | 232 | 14.5 | 20.9 | 0.00 | 0.00 | 0.00 | 79 | 1021.4 |
| 20260906095904 | 16 | 237 | 12.9 | 16.1 | 0.00 | 0.00 | 0.00 | 79 | 1021.4 |
| 20260906094904 | 16 | 237 | 12.9 | 16.1 | 0.00 | 0.00 | 0.00 | 77 | 1021.3 |
| 20260906093904 | 16 | 235 | 11.3 | 14.5 | 0.00 | 0.00 | 0.00 | 77 | 1021.2 |
| 20260906093404 | 16 | 234 | 11.3 | 14.5 | 0.00 | 0.00 | 0.00 | 75 | 1021.0 |
| 20260906092904 | 16 | 221 | 9.7 | 14.5 | 0.00 | 0.00 | 0.00 | 75 | 1021.1 |
| 20260906092404 | 16 | 235 | 9.7 | 14.5 | 0.00 | 0.00 | 0.00 | 74 | 1021.1 |
| 20260906091904 | 16 | 234 | 9.7 | 14.5 | 0.00 | 0.00 | 0.00 | 74 | 1021.1 |
| 20260906091403 | 16 | 230 | 11.3 | 14.5 | 0.00 | 0.00 | 0.00 | 74 | 1021.0 |
| 20260906090903 | 16 | 216 | 12.9 | 14.5 | 0.00 | 0.00 | 0.00 | 74 | 1020.9 |
| 20260906090403 | 16 | 211 | 11.3 | 14.5 | 0.00 | 0.00 | 0.00 | 75 | 1020.7 |
| 20260906085903 | 16 | 239 | 11.3 | 14.5 | 0.00 | 0.00 | 0.00 | 75 | 1020.9 |
| 20260906085404 | 16 | 250 | 11.3 | 12.9 | 0.00 | 0.00 | 0.00 | 75 | 1021.0 |
| 20260906083903 | 16 | 255 | 8.0 | 16.1 | 0.00 | 0.00 | 0.00 | 75 | 1021.3 |
| 20260906083403 | 16 | 247 | 8.0 | 16.1 | 0.00 | 0.00 | 0.00 | 74 | 1021.3 |
| 20260906082903 | 16 | 233 | 11.3 | 16.1 | 0.00 | 0.00 | 0.00 | 74 | 1021.4 |
| 20260906082403 | 16 | 248 | 14.5 | 16.1 | 0.00 | 0.00 | 0.00 | 74 | 1021.7 |
| 20260906081904 | 16 | 234 | 11.3 | 14.5 | 0.00 | 0.00 | 0.00 | 75 | 1021.8 |
| 20260906080904 | 16 | 260 | 8.0 | 14.5 | 0.00 | 0.00 | 0.00 | 74 | 1021.6 |
| 20260906080404 | 16 | 275 | 12.9 | 16.1 | 0.00 | 0.00 | 0.00 | 74 | 1021.3 |
| 20260906075904 | 16 | 266 | 9.7 | 19.3 | 0.00 | 0.00 | 0.00 | 74 | 1021.7 |
| 20260906075404 | 16 | 264 | 14.5 | 20.9 | 0.00 | 0.00 | 0.00 | 74 | 1021.7 |
| 20260906073904 | 16 | 268 | 14.5 | 19.3 | 0.00 | 0.00 | 0.00 | 74 | 1021.6 |
| 20260906073404 | 16 | 251 | 12.9 | 16.1 | 0.00 | 0.00 | 0.00 | 75 | 1021.4 |
| 20260906072903 | 17 | 256 | 12.9 | 16.1 | 0.00 | 0.00 | 0.00 | 75 | 1021.5 |
| 20260906072403 | 17 | 260 | 12.9 | 16.1 | 0.00 | 0.00 | 0.00 | 76 | 1021.3 |
| 20260906070903 | 17 | 277 | 11.3 | 16.1 | 0.00 | 0.00 | 0.00 | 76 | 1021.3 |
| 20260906070403 | 17 | 269 | 9.7 | 14.5 | 0.00 | 0.00 | 0.00 | 76 | 1021.2 |
| 20260906065904 | 17 | 269 | 11.3 | 14.5 | 0.00 | 0.00 | 0.00 | 77 | 1021.1 |
| 20260906065404 | 17 | 290 | 14.5 | 14.5 | 0.00 | 0.00 | 0.00 | 78 | 1021.2 |
| 20260906064904 | 17 | 294 | 9.7 | 11.3 | 0.00 | 0.00 | 0.00 | 77 | 1021.3 |
| 20260906064404 | 17 | 297 | 8.0 | 11.3 | 0.00 | 0.00 | 0.00 | 76 | 1021.2 |
| 20260906063903 | 17 | 316 | 8.0 | 11.3 | 0.00 | 0.00 | 0.00 | 77 | 1021.3 |
| 20260906063404 | 17 | 297 | 9.7 | 11.3 | 0.00 | 0.00 | 0.00 | 77 | 1021.3 |
| 20260906062904 | 17 | 273 | 9.7 | 9.7 | 0.00 | 0.00 | 0.00 | 77 | 1021.1 |
| 20260906062403 | 17 | 261 | 8.0 | 9.7 | 0.00 | 0.00 | 0.00 | 77 | 1021.2 |
| 20260906061903 | 17 | 251 | 3.2 | 4.8 | 0.00 | 0.00 | 0.00 | 78 | 1021.4 |
| 20260906061403 | 17 | 241 | 3.2 | 8.0 | 0.00 | 0.00 | 0.00 | 79 | 1021.5 |
| 20260906060903 | 17 | 277 | 3.2 | 8.0 | 0.00 | 0.00 | 0.00 | 79 | 1021.5 |
| 20260906060403 | 17 | 210 | 4.8 | 8.0 | 0.00 | 0.00 | 0.00 | 80 | 1021.4 |
| 20260906055904 | 17 | 184 | 3.2 | 4.8 | 0.00 | 0.00 | 0.00 | 80 | 1021.4 |
| 20260906054904 | 16 | 216 | 3.2 | 3.2 | 0.00 | 0.00 | 0.00 | 82 | 1021.3 |
| 20260906053404 | 16 | 89 | 0.0 | 9.7 | 0.00 | 0.00 | 0.00 | 82 | 1021.5 |
| 20260906052904 | 16 | 150 | 1.6 | 9.7 | 0.00 | 0.00 | 0.00 | 82 | 1021.6 |
| 20260906052404 | 16 | 90 | 4.8 | 9.7 | 0.00 | 0.00 | 0.00 | 82 | 1021.5 |
| 20260906051904 | 17 | 111 | 4.8 | 12.9 | 0.00 | 0.00 | 0.00 | 81 | 1021.6 |
| 20260906050403 | 17 | 89 | 8.0 | 25.7 | 0.00 | 0.00 | 0.00 | 79 | 1021.1 |
| 20260906045903 | 17 | 92 | 14.5 | 25.7 | 0.00 | 0.00 | 0.00 | 78 | 1021.4 |
| 20260906045403 | 17 | 88 | 16.1 | 25.7 | 0.00 | 0.00 | 0.00 | 77 | 1021.1 |
| 20260906044903 | 17 | 97 | 16.1 | 20.9 | 0.00 | 0.00 | 0.00 | 76 | 1021.1 |
| 20260906044403 | 17 | 94 | 11.3 | 16.1 | 0.00 | 0.00 | 0.00 | 76 | 1021.1 |
| 20260906043403 | 18 | 73 | 9.7 | 22.5 | 0.00 | 0.00 | 0.00 | 75 | 1021.5 |
| 20260906042903 | 18 | 87 | 14.5 | 22.5 | 0.00 | 0.00 | 0.00 | 75 | 1021.3 |
| 20260906042403 | 18 | 97 | 11.3 | 22.5 | 0.00 | 0.00 | 0.00 | 73 | 1021.6 |
| 20260906041404 | 18 | 97 | 17.7 | 22.5 | 0.00 | 0.00 | 0.00 | 71 | 1021.2 |
| 20260906040404 | 19 | 87 | 19.3 | 24.1 | 0.00 | 0.00 | 0.00 | 67 | 1021.4 |
| 20260906035903 | 19 | 124 | 17.7 | 24.1 | 0.00 | 0.00 | 0.00 | 67 | 1020.9 |
| 20260906035403 | 20 | 108 | 20.9 | 24.1 | 0.00 | 0.00 | 0.00 | 65 | 1021.0 |
| 20260906034904 | 20 | 101 | 19.3 | 22.5 | 0.00 | 0.00 | 0.00 | 62 | 1020.9 |
| 20260906033904 | 20 | 80 | 16.1 | 25.7 | 0.00 | 0.00 | 0.00 | 57 | 1020.7 |
| 20260906032904 | 20 | 43 | 19.3 | 25.7 | 0.00 | 0.00 | 0.00 | 58 | 1020.4 |
| 20260906032404 | 20 | 5 | 11.3 | 14.5 | 0.00 | 0.00 | 0.00 | 57 | 1020.2 |
| 20260906031904 | 21 | 352 | 8.0 | 16.1 | 0.00 | 0.00 | 0.00 | 57 | 1020.0 |
| 20260906031403 | 21 | 13 | 9.7 | 16.1 | 0.00 | 0.00 | 0.00 | 54 | 1020.1 |
| 20260906030403 | 22 | 31 | 9.7 | 12.9 | 0.00 | 0.00 | 0.00 | 49 | 1019.6 |
| 20260906025903 | 22 | 14 | 9.7 | 16.1 | 0.00 | 0.00 | 0.00 | 46 | 1019.9 |
| 20260906025403 | 22 | 358 | 4.8 | 16.1 | 0.00 | 0.00 | 0.00 | 40 | 1019.5 |
| 20260906024903 | 22 | 19 | 11.3 | 16.1 | 0.00 | 0.00 | 0.00 | 39 | 1019.6 |
| 20260906024403 | 23 | 18 | 8.0 | 12.9 | 0.00 | 0.00 | 0.00 | 38 | 1019.5 |
| 20260906023903 | 23 | 102 | 4.8 | 16.1 | 0.00 | 0.00 | 0.00 | 37 | 1019.6 |
| 20260906023404 | 23 | 18 | 4.8 | 25.7 | 0.00 | 0.00 | 0.00 | 35 | 1019.8 |
| 20260906022904 | 23 | 17 | 16.1 | 29.0 | 0.00 | 0.00 | 0.00 | 35 | 1019.7 |
| 20260906022404 | 24 | 5 | 19.3 | 29.0 | 0.00 | 0.00 | 0.00 | 33 | 1019.7 |
| 20260906021904 | 23 | 347 | 16.1 | 29.0 | 0.00 | 0.00 | 0.00 | 34 | 1019.8 |
| 20260906021404 | 23 | 331 | 12.9 | 14.5 | 0.00 | 0.00 | 0.00 | 33 | 1019.8 |
| 20260906020904 | 23 | 335 | 12.9 | 16.1 | 0.00 | 0.00 | 0.00 | 33 | 1019.8 |
| 20260906015903 | 24 | 326 | 11.3 | 19.3 | 0.00 | 0.00 | 0.00 | 31 | 1019.6 |
| 20260906014903 | 24 | 329 | 12.9 | 16.1 | 0.00 | 0.00 | 0.00 | 31 | 1019.8 |
| 20260906013904 | 25 | 337 | 12.9 | 20.9 | 0.00 | 0.00 | 0.00 | 29 | 1019.5 |
| 20260906013404 | 25 | 349 | 16.1 | 20.9 | 0.00 | 0.00 | 0.00 | 29 | 1019.5 |
| 20260906012904 | 26 | 342 | 17.7 | 20.9 | 0.00 | 0.00 | 0.00 | 29 | 1019.3 |
| 20260906012404 | 26 | 325 | 16.1 | 20.9 | 0.00 | 0.00 | 0.00 | 28 | 1019.5 |
| 20260906011904 | 26 | 324 | 16.1 | 19.3 | 0.00 | 0.00 | 0.00 | 28 | 1019.5 |
| 20260906011404 | 26 | 315 | 14.5 | 19.3 | 0.00 | 0.00 | 0.00 | 28 | 1019.6 |
| 20260906010904 | 27 | 302 | 9.7 | 14.5 | 0.00 | 0.00 | 0.00 | 27 | 1019.4 |
| 20260906010403 | 27 | 347 | 8.0 | 8.0 | 0.00 | 0.00 | 0.00 | 26 | 1019.7 |
| 20260906005903 | 28 | 349 | 8.0 | 8.0 | 0.00 | 0.00 | 0.00 | 26 | 1019.5 |
| 20260906005403 | 28 | 358 | 4.8 | 9.7 | 0.00 | 0.00 | 0.00 | 26 | 1019.9 |
| 20260906004903 | 28 | 344 | 6.4 | 11.3 | 0.00 | 0.00 | 0.00 | 25 | 1019.7 |
| 20260906004403 | 28 | 346 | 8.0 | 11.3 | 0.00 | 0.00 | 0.00 | 25 | 1019.8 |
| 20260906002904 | 28 | 338 | 8.0 | 14.5 | 0.00 | 0.00 | 0.00 | 24 | 1019.4 |
| 20260906001404 | 28 | 349 | 11.3 | 14.5 | 0.00 | 0.00 | 0.00 | 24 | 1019.9 |
| 20260906000904 | 28 | 338 | 4.8 | 12.9 | 0.00 | 0.00 | 0.00 | 24 | 1020.0 |
| 20260906000404 | 28 | 345 | 9.7 | 12.9 | 0.00 | 0.00 | 0.00 | 24 | 1019.8 |
| 20260905235904 | 29 | 326 | 4.8 | 9.7 | 0.00 | 0.00 | 0.00 | 24 | 1019.7 |
| 20260905235404 | 29 | 18 | 8.0 | 12.9 | 0.00 | 0.00 | 0.00 | 23 | 1019.5 |
| 20260905234904 | 29 | 352 | 6.4 | 12.9 | 0.00 | 0.00 | 0.00 | 24 | 1019.5 |
| 20260905234404 | 29 | 356 | 11.3 | 16.1 | 0.00 | 0.00 | 0.00 | 23 | 1019.4 |
| 20260905233903 | 29 | 39 | 8.0 | 16.1 | 0.00 | 0.00 | 0.00 | 24 | 1019.1 |
| 20260905233403 | 29 | 19 | 11.3 | 16.1 | 0.00 | 0.00 | 0.00 | 24 | 1019.4 |
| 20260905232903 | 29 | 53 | 6.4 | 16.1 | 0.00 | 0.00 | 0.00 | 24 | 1020.0 |
| 20260905232404 | 29 | 37 | 4.8 | 16.1 | 0.00 | 0.00 | 0.00 | 24 | 1020.0 |
| 20260905231903 | 29 | 154 | 6.4 | 16.1 | 0.00 | 0.00 | 0.00 | 24 | 1019.8 |
| 20260905230903 | 29 | 57 | 8.0 | 20.9 | 0.00 | 0.00 | 0.00 | 24 | 1019.7 |
| 20260905230403 | 29 | 48 | 14.5 | 20.9 | 0.00 | 0.00 | 0.00 | 24 | 1019.4 |
| 20260905225903 | 28 | 53 | 6.4 | 16.1 | 0.00 | 0.00 | 0.00 | 25 | 1019.5 |
| 20260905225403 | 28 | 52 | 4.8 | 19.3 | 0.00 | 0.00 | 0.00 | 25 | 1019.7 |
| 20260905224903 | 28 | 45 | 12.9 | 19.3 | 0.00 | 0.00 | 0.00 | 25 | 1019.6 |
| 20260905224403 | 28 | 68 | 11.3 | 20.9 | 0.00 | 0.00 | 0.00 | 25 | 1019.4 |
| 20260905223903 | 28 | 86 | 14.5 | 20.9 | 0.00 | 0.00 | 0.00 | 25 | 1019.2 |
| 20260905223403 | 28 | 49 | 14.5 | 16.1 | 0.00 | 0.00 | 0.00 | 25 | 1019.6 |
| 20260905222403 | 28 | 6 | 8.0 | 12.9 | 0.00 | 0.00 | 0.00 | 23 | 1019.6 |
| 20260905221403 | 28 | 63 | 8.0 | 19.3 | 0.00 | 0.00 | 0.00 | 23 | 1019.2 |
| 20260905220903 | 28 | 96 | 8.0 | 24.1 | 0.00 | 0.00 | 0.00 | 23 | 1019.5 |
| 20260905220403 | 29 | 48 | 6.4 | 24.1 | 0.00 | 0.00 | 0.00 | 23 | 1019.4 |
| 20260905215403 | 29 | 108 | 11.3 | 33.8 | 0.00 | 0.00 | 0.00 | 24 | 1019.4 |
| 20260905214903 | 28 | 65 | 14.5 | 33.8 | 0.00 | 0.00 | 0.00 | 24 | 1019.5 |
| 20260905214403 | 29 | 86 | 20.9 | 33.8 | 0.00 | 0.00 | 0.00 | 24 | 1019.9 |
| 20260905213903 | 29 | 74 | 14.5 | 29.0 | 0.00 | 0.00 | 0.00 | 24 | 1020.0 |
| 20260905213403 | 28 | 56 | 17.7 | 29.0 | 0.00 | 0.00 | 0.00 | 23 | 1019.9 |